Location: Balaclava NSW 2575, Australia
(34.4510°S, 150.4953°E)
Time: 23:24:07
(UTC+10:00)

XW-2C - Pass Details

Date: 07 August 2021
Orbit: 505 x 524 km, 97.5° (Epoch: 26 September)

Event Time Altitude Azimuth Distance (km) Brightness Sun altitude
Rises 17:56:00 0° 170° (S) 2,656 ? -7.6°
Reaches altitude 10° 17:58:07 10° 171° (S) 1,758 ? -8.0°
Maximum altitude 18:01:54 81° 258° (WSW) 526 ? -8.8°
Drops below altitude 10° 18:05:37 10° 344° (NNW) 1,723 ? -9.5°
Sets 18:07:41 0° 345° (NNW) 2,598 ? -9.9°
